This is the latest recevied weather packets stored in our database for station/object KE5VBO-1. If no packets are shown the sender has not sent any weather packets the latest 10 day(s).
| Time | Temp. | Humidity | Pressure | Rain* | Wind** | Luminosity | Snow |
|---|---|---|---|---|---|---|---|
| 1777653956 | 16.67° C | 12% | 1016.9 hPa | 0 mm | - | - | - |
| 1777653014 | 15.56° C | 1% | 1017.1 hPa | 0 mm | - | - | - |
| 1777652147 | 15° C | 1% | 1016.8 hPa | 0 mm | - | - | - |
| 1777651214 | 14.44° C | 1% | 1017.1 hPa | 0 mm | - | - | - |
| 1777650351 | 14.44° C | 1% | 1016.9 hPa | 0 mm | - | - | - |
| 1777649428 | 14.44° C | 1% | 1016.4 hPa | 0 mm | - | - | - |
| 1777647610 | 13.89° C | 1% | 1016.7 hPa | 0 mm | - | - | - |
| 1777646745 | 13.33° C | 1% | 1016.8 hPa | 0 mm | - | - | - |
| 1777645810 | 13.33° C | 1% | 1016.4 hPa | 0 mm | - | - | - |
| 1777644958 | 13.33° C | 1% | 1016.3 hPa | 0 mm | - | - | - |
| 1777644011 | 13.33° C | 1% | 1016.3 hPa | 0 mm | - | - | - |
| 1777643152 | 13.33° C | 1% | 1016.3 hPa | 0 mm | - | - | - |
| 1777642228 | 12.78° C | 1% | 1016.8 hPa | 0 mm | - | - | - |
| 1777641358 | 12.78° C | 1% | 1016.2 hPa | 0 mm | - | - | - |
| 1777640428 | 12.78° C | 1% | 1016 hPa | 0 mm | - | - | - |
| 1777639565 | 12.78° C | 1% | 1016.2 hPa | 0 mm | - | - | - |
| 1777638634 | 12.78° C | 1% | 1015.3 hPa | 0 mm | - | - | - |
| 1777637775 | 12.78° C | 1% | 1015 hPa | 0 mm | - | - | - |
| 1777636836 | 12.78° C | 1% | 1015 hPa | 0 mm | - | - | - |
| 1777635971 | 12.78° C | 1% | 1015.1 hPa | 0 mm | - | - | - |
| 1777635054 | 12.78° C | 1% | 1014.7 hPa | 0 mm | - | - | - |
| 1777634111 | 12.78° C | 1% | 1014.9 hPa | 0 mm | - | - | - |
| 1777633237 | 13.33° C | 1% | 1015 hPa | 0 mm | - | - | - |
| 1777632301 | 13.33° C | 1% | 1015 hPa | 0 mm | - | - | - |
| 1777631452 | 13.33° C | 1% | 1015.1 hPa | 0 mm | - | - | - |
* Rain latest hour (hover to see other rain measurements)
** Current wind speed in m/s (hover to see current wind gust speed)